Time,TemperatureF,DewpointF,PressureIn,WindDirection,WindDirectionDegrees,WindSpeedMPH,WindSpeedGustMPH,Humidity,HourlyPrecipIn,Conditions,Clouds,dailyrainin,SoftwareType,DateUTC
2013-03-25 00:00:00,28.6,25.2,29.56,NE,44,7.2,10.0,87,0.00,,,0.00,VWS V14.01,2013-03-25 04:00:00,
2013-03-25 00:05:00,28.5,25.1,29.56,NE,42,4.2,12.0,87,0.00,,,0.00,VWS V14.01,2013-03-25 04:05:00,
2013-03-25 00:10:00,28.5,25.1,29.56,NE,52,7.2,12.0,87,0.00,,,0.00,VWS V14.01,2013-03-25 04:10:00,
2013-03-25 00:15:00,28.5,25.1,29.56,NE,49,6.2,7.0,87,0.00,,,0.00,VWS V14.01,2013-03-25 04:15:00,
2013-03-25 00:20:00,28.4,25.0,29.56,NE,34,5.2,13.0,87,0.00,,,0.00,VWS V14.01,2013-03-25 04:20:00,
2013-03-25 00:25:00,28.4,25.0,29.56,NNE,32,4.2,7.0,87,0.00,,,0.00,VWS V14.01,2013-03-25 04:25:00,
2013-03-25 00:30:00,28.3,24.9,29.56,North,360,2.2,12.0,87,0.00,,,0.00,VWS V14.01,2013-03-25 04:30:00,
2013-03-25 00:35:00,28.3,24.9,29.56,NE,55,8.2,10.0,87,0.00,,,0.00,VWS V14.01,2013-03-25 04:35:00,
2013-03-25 00:40:00,28.2,24.8,29.56,NNE,26,7.2,12.0,87,0.00,,,0.00,VWS V14.01,2013-03-25 04:40:00,
2013-03-25 00:45:00,28.2,24.8,29.56,ENE,61,3.2,9.0,87,0.00,,,0.00,VWS V14.01,2013-03-25 04:45:00,
2013-03-25 00:50:00,28.2,24.8,29.56,NNE,21,5.2,11.0,87,0.00,,,0.00,VWS V14.01,2013-03-25 04:50:00,
2013-03-25 00:56:00,28.1,24.7,29.56,North,9,9.2,14.0,87,0.00,,,0.00,VWS V14.01,2013-03-25 04:56:00,
2013-03-25 01:01:00,28.1,24.7,29.56,NE,42,6.2,14.0,87,0.00,,,0.00,VWS V14.01,2013-03-25 05:01:00,
2013-03-25 01:06:00,28.1,24.7,29.56,NNE,28,2.2,8.0,87,0.00,,,0.00,VWS V14.01,2013-03-25 05:06:00,
2013-03-25 01:11:00,28.1,24.7,29.56,North,360,8.2,8.2,87,0.00,,,0.00,VWS V14.01,2013-03-25 05:11:00,
2013-03-25 01:16:00,28.1,24.7,29.56,NNE,19,5.2,9.0,87,0.00,,,0.00,VWS V14.01,2013-03-25 05:16:00,
2013-03-25 01:21:00,28.1,24.7,29.56,North,11,4.2,10.0,87,0.00,,,0.00,VWS V14.01,2013-03-25 05:21:00,
2013-03-25 01:26:00,28.1,24.7,29.56,North,360,7.2,11.0,87,0.00,,,0.00,VWS V14.01,2013-03-25 05:26:00,
2013-03-25 01:31:00,28.1,24.7,29.56,NNE,15,5.2,11.0,87,0.00,,,0.00,VWS V14.01,2013-03-25 05:31:00,
2013-03-25 01:36:00,28.1,24.7,29.56,NE,43,4.2,8.0,87,0.00,,,0.00,VWS V14.01,2013-03-25 05:36:00,
2013-03-25 01:41:00,28.1,24.7,29.56,North,11,6.2,9.0,87,0.00,,,0.00,VWS V14.01,2013-03-25 05:41:00,
2013-03-25 01:46:00,28.0,24.6,29.55,NNE,17,4.2,10.0,87,0.00,,,0.00,VWS V14.01,2013-03-25 05:46:00,
2013-03-25 01:51:00,28.0,24.6,29.55,NNE,33,5.2,11.0,87,0.00,,,0.00,VWS V14.01,2013-03-25 05:51:00,
2013-03-25 01:56:00,28.0,24.6,29.56,NNE,18,7.2,7.2,87,0.00,,,0.00,VWS V14.01,2013-03-25 05:56:00,
2013-03-25 02:01:00,28.0,24.6,29.56,NNE,14,6.2,8.0,87,0.00,,,0.00,VWS V14.01,2013-03-25 06:01:00,
2013-03-25 02:06:00,28.0,24.6,29.56,NNE,12,3.2,12.0,87,0.00,,,0.00,VWS V14.01,2013-03-25 06:06:00,
2013-03-25 02:11:00,28.0,24.6,29.56,NNE,24,4.2,12.0,87,0.00,,,0.00,VWS V14.01,2013-03-25 06:11:00,
2013-03-25 02:16:00,28.0,24.6,29.56,North,5,8.2,9.0,87,0.00,,,0.00,VWS V14.01,2013-03-25 06:16:00,
2013-03-25 02:21:00,28.0,24.6,29.56,North,5,5.2,5.2,87,0.00,,,0.00,VWS V14.01,2013-03-25 06:21:00,
2013-03-25 02:26:00,28.0,24.6,29.56,NNE,25,4.2,12.0,87,0.00,,,0.00,VWS V14.01,2013-03-25 06:26:00,
2013-03-25 02:31:00,28.0,24.6,29.56,North,5,9.2,10.0,87,0.00,,,0.00,VWS V14.01,2013-03-25 06:31:00,
2013-03-25 02:37:00,28.0,24.6,29.56,NNE,12,6.2,10.0,87,0.00,,,0.00,VWS V14.01,2013-03-25 06:37:00,
2013-03-25 02:42:00,28.0,24.6,29.56,NNE,22,5.2,6.0,87,0.00,,,0.00,VWS V14.01,2013-03-25 06:42:00,
2013-03-25 02:46:00,28.0,24.6,29.56,NE,35,2.2,8.0,87,0.00,,,0.00,VWS V14.01,2013-03-25 06:46:00,
2013-03-25 02:52:00,28.0,24.6,29.56,NNE,32,3.2,10.0,87,0.00,,,0.00,VWS V14.01,2013-03-25 06:52:00,
2013-03-25 02:57:00,28.0,24.6,29.56,North,10,3.2,12.0,87,0.00,,,0.00,VWS V14.01,2013-03-25 06:57:00,
2013-03-25 03:02:00,28.0,24.6,29.56,NNE,25,2.2,3.0,87,0.00,,,0.00,VWS V14.01,2013-03-25 07:02:00,
2013-03-25 03:07:00,28.0,24.6,29.56,North,5,4.2,9.0,87,0.00,,,0.00,VWS V14.01,2013-03-25 07:07:00,
2013-03-25 03:12:00,28.0,24.6,29.56,North,360,4.2,6.0,87,0.00,,,0.00,VWS V14.01,2013-03-25 07:12:00,
2013-03-25 03:17:00,28.0,24.6,29.56,NNW,343,8.2,8.2,87,0.00,,,0.00,VWS V14.01,2013-03-25 07:17:00,
2013-03-25 03:22:00,28.0,24.6,29.56,North,5,2.2,2.2,87,0.00,,,0.00,VWS V14.01,2013-03-25 07:22:00,
2013-03-25 03:27:00,28.0,24.6,29.56,North,5,5.2,8.0,87,0.00,,,0.00,VWS V14.01,2013-03-25 07:27:00,
2013-03-25 03:32:00,28.0,24.6,29.56,North,11,6.2,7.0,87,0.00,,,0.00,VWS V14.01,2013-03-25 07:32:00,
2013-03-25 03:37:00,27.9,24.5,29.56,NNE,28,4.2,8.0,87,0.00,,,0.00,VWS V14.01,2013-03-25 07:37:00,
2013-03-25 03:42:00,27.9,24.5,29.56,North,355,6.2,7.0,87,0.00,,,0.00,VWS V14.01,2013-03-25 07:42:00,
2013-03-25 03:47:00,27.9,24.5,29.55,North,349,9.2,9.2,87,0.00,,,0.00,VWS V14.01,2013-03-25 07:47:00,
2013-03-25 03:52:00,27.9,24.5,29.56,NNE,30,5.2,10.0,87,0.00,,,0.00,VWS V14.01,2013-03-25 07:52:00,
2013-03-25 03:57:00,27.9,24.5,29.56,NNE,21,4.2,10.0,87,0.00,,,0.00,VWS V14.01,2013-03-25 07:57:00,
2013-03-25 04:02:00,27.9,24.5,29.56,NNE,15,5.2,9.0,87,0.00,,,0.00,VWS V14.01,2013-03-25 08:02:00,
2013-03-25 04:07:00,27.9,24.5,29.56,NNW,345,8.2,9.0,87,0.00,,,0.00,VWS V14.01,2013-03-25 08:07:00,
2013-03-25 04:12:00,27.9,24.5,29.56,North,355,4.2,7.0,87,0.00,,,0.00,VWS V14.01,2013-03-25 08:12:00,
2013-03-25 04:17:00,27.9,24.5,29.56,North,360,4.2,9.0,87,0.00,,,0.00,VWS V14.01,2013-03-25 08:17:00,
2013-03-25 04:22:00,27.9,24.5,29.55,North,11,6.2,9.0,87,0.00,,,0.00,VWS V14.01,2013-03-25 08:22:00,
2013-03-25 04:27:00,27.9,24.5,29.55,North,10,5.2,10.0,87,0.00,,,0.00,VWS V14.01,2013-03-25 08:27:00,
2013-03-25 04:32:00,27.9,24.5,29.55,NNE,29,5.2,11.0,87,0.00,,,0.00,VWS V14.01,2013-03-25 08:32:00,
2013-03-25 04:37:00,27.9,24.5,29.55,North,350,7.2,11.0,87,0.00,,,0.00,VWS V14.01,2013-03-25 08:37:00,
2013-03-25 04:42:00,27.9,24.5,29.56,North,349,5.2,5.2,87,0.00,,,0.00,VWS V14.01,2013-03-25 08:42:00,
2013-03-25 04:47:00,27.9,24.5,29.56,North,5,3.2,12.0,87,0.00,,,0.00,VWS V14.01,2013-03-25 08:47:00,
2013-03-25 04:52:00,27.9,24.5,29.56,North,351,4.2,5.0,87,0.00,,,0.00,VWS V14.01,2013-03-25 08:52:00,
2013-03-25 04:57:00,27.9,24.5,29.56,North,355,8.2,9.0,87,0.00,,,0.00,VWS V14.01,2013-03-25 08:57:00,
2013-03-25 05:02:00,27.9,24.5,29.56,North,9,5.2,8.0,87,0.00,,,0.00,VWS V14.01,2013-03-25 09:02:00,
2013-03-25 05:07:00,27.9,24.5,29.56,North,360,6.2,12.0,87,0.00,,,0.00,VWS V14.01,2013-03-25 09:07:00,
2013-03-25 05:12:00,27.9,24.5,29.56,North,5,8.2,9.0,87,0.00,,,0.00,VWS V14.01,2013-03-25 09:12:00,
2013-03-25 05:17:00,27.9,24.5,29.55,NNW,341,8.2,10.0,87,0.00,,,0.00,VWS V14.01,2013-03-25 09:17:00,
2013-03-25 05:22:00,27.9,24.5,29.56,North,11,8.2,12.0,87,0.00,,,0.00,VWS V14.01,2013-03-25 09:22:00,
2013-03-25 05:27:00,27.9,24.5,29.56,North,350,7.2,12.0,87,0.00,,,0.00,VWS V14.01,2013-03-25 09:27:00,
2013-03-25 05:32:00,28.0,24.6,29.56,North,5,4.2,7.0,87,0.00,,,0.00,VWS V14.01,2013-03-25 09:32:00,
2013-03-25 05:38:00,28.0,24.6,29.56,North,355,3.2,11.0,87,0.00,,,0.00,VWS V14.01,2013-03-25 09:38:00,
2013-03-25 05:43:00,28.0,24.6,29.56,North,350,8.2,8.2,87,0.00,,,0.00,VWS V14.01,2013-03-25 09:43:00,
2013-03-25 05:48:00,28.0,24.6,29.56,North,360,8.2,10.0,87,0.00,,,0.00,VWS V14.01,2013-03-25 09:48:00,
2013-03-25 05:53:00,28.0,24.6,29.56,North,5,5.2,11.0,87,0.00,,,0.00,VWS V14.01,2013-03-25 09:53:00,
2013-03-25 05:58:00,28.0,24.6,29.56,NNE,13,6.2,11.0,87,0.00,,,0.00,VWS V14.01,2013-03-25 09:58:00,
2013-03-25 06:03:00,28.0,24.6,29.56,North,360,12.2,12.2,87,0.00,,,0.00,VWS V14.01,2013-03-25 10:03:00,
2013-03-25 06:08:00,28.0,24.6,29.56,NNW,331,9.2,11.0,87,0.00,,,0.00,VWS V14.01,2013-03-25 10:08:00,
2013-03-25 06:13:00,28.0,24.6,29.57,North,360,11.2,11.2,87,0.00,,,0.00,VWS V14.01,2013-03-25 10:13:00,
2013-03-25 06:18:00,28.0,24.6,29.57,North,355,7.2,11.0,87,0.00,,,0.00,VWS V14.01,2013-03-25 10:18:00,
2013-03-25 06:23:00,28.0,24.6,29.57,NNW,334,6.2,11.0,87,0.00,,,0.00,VWS V14.01,2013-03-25 10:23:00,
2013-03-25 06:28:00,28.0,24.6,29.57,NW,322,5.2,11.0,87,0.00,,,0.00,VWS V14.01,2013-03-25 10:28:00,
2013-03-25 06:33:00,28.0,24.6,29.57,North,360,4.2,12.0,87,0.00,,,0.00,VWS V14.01,2013-03-25 10:33:00,
2013-03-25 06:38:00,28.0,24.6,29.57,NW,325,5.2,12.0,87,0.00,,,0.00,VWS V14.01,2013-03-25 10:38:00,
2013-03-25 06:43:00,28.0,24.6,29.58,NNW,348,6.2,6.2,87,0.00,,,0.00,VWS V14.01,2013-03-25 10:43:00,
2013-03-25 06:48:00,28.0,24.6,29.58,North,9,6.2,8.0,87,0.00,,,0.00,VWS V14.01,2013-03-25 10:48:00,
2013-03-25 06:53:00,28.0,24.6,29.58,NNW,342,6.2,9.0,87,0.00,,,0.00,VWS V14.01,2013-03-25 10:53:00,
2013-03-25 06:58:00,28.0,24.6,29.58,NNW,341,6.2,12.0,87,0.00,,,0.00,VWS V14.01,2013-03-25 10:58:00,
2013-03-25 07:03:00,28.0,24.6,29.58,North,360,5.2,8.0,87,0.00,,,0.00,VWS V14.01,2013-03-25 11:03:00,
2013-03-25 07:08:00,28.0,24.6,29.58,North,355,6.2,10.0,87,0.00,,,0.00,VWS V14.01,2013-03-25 11:08:00,
2013-03-25 07:13:00,28.0,24.6,29.58,NNW,346,6.2,8.0,87,0.00,,,0.00,VWS V14.01,2013-03-25 11:13:00,
2013-03-25 07:18:00,28.0,24.6,29.59,North,360,4.2,10.0,87,0.00,,,0.00,VWS V14.01,2013-03-25 11:18:00,
2013-03-25 07:23:00,28.0,24.6,29.59,North,355,5.2,11.0,87,0.00,,,0.00,VWS V14.01,2013-03-25 11:23:00,
2013-03-25 07:28:00,28.0,24.6,29.59,North,350,10.2,14.0,87,0.00,,,0.00,VWS V14.01,2013-03-25 11:28:00,
2013-03-25 07:33:00,28.0,24.6,29.60,NNW,347,10.2,10.2,87,0.00,,,0.00,VWS V14.01,2013-03-25 11:33:00,
2013-03-25 07:38:00,28.0,24.6,29.60,North,5,8.2,9.0,87,0.00,,,0.00,VWS V14.01,2013-03-25 11:38:00,
2013-03-25 07:43:00,28.0,24.6,29.60,North,11,7.2,9.0,87,0.00,,,0.00,VWS V14.01,2013-03-25 11:43:00,
2013-03-25 07:48:00,28.0,24.6,29.60,North,5,6.2,10.0,87,0.00,,,0.00,VWS V14.01,2013-03-25 11:48:00,
2013-03-25 07:53:00,28.0,24.6,29.60,North,355,6.2,8.0,87,0.00,,,0.00,VWS V14.01,2013-03-25 11:53:00,
2013-03-25 07:58:00,28.1,24.7,29.60,NNW,332,6.2,11.0,87,0.00,,,0.00,VWS V14.01,2013-03-25 11:58:00,
2013-03-25 08:03:00,28.1,24.7,29.60,North,355,10.2,12.0,87,0.00,,,0.00,VWS V14.01,2013-03-25 12:03:00,
2013-03-25 08:08:00,28.1,24.7,29.60,North,11,10.2,12.0,87,0.00,,,0.00,VWS V14.01,2013-03-25 12:08:00,
2013-03-25 08:13:00,28.1,24.7,29.61,NNW,336,10.2,10.2,87,0.00,,,0.00,VWS V14.01,2013-03-25 12:13:00,
2013-03-25 08:18:00,28.2,24.8,29.61,North,11,6.2,10.0,87,0.00,,,0.00,VWS V14.01,2013-03-25 12:18:00,
2013-03-25 08:23:00,28.2,24.8,29.61,North,9,5.2,5.2,87,0.00,,,0.00,VWS V14.01,2013-03-25 12:23:00,
2013-03-25 08:28:00,28.2,24.8,29.61,NNW,348,5.2,7.0,87,0.00,,,0.00,VWS V14.01,2013-03-25 12:28:00,
2013-03-25 08:33:00,28.3,24.9,29.62,NNW,348,5.2,6.0,87,0.00,,,0.00,VWS V14.01,2013-03-25 12:33:00,
2013-03-25 08:38:00,28.3,24.9,29.62,NNW,341,7.2,9.0,87,0.00,,,0.00,VWS V14.01,2013-03-25 12:38:00,
2013-03-25 08:44:00,28.4,25.0,29.62,North,5,4.2,10.0,87,0.00,,,0.00,VWS V14.01,2013-03-25 12:44:00,
2013-03-25 08:49:00,28.4,25.0,29.62,NNW,347,8.2,10.0,87,0.00,,,0.00,VWS V14.01,2013-03-25 12:49:00,
2013-03-25 08:53:00,28.5,25.1,29.62,NW,319,4.2,7.0,87,0.00,,,0.00,VWS V14.01,2013-03-25 12:53:00,
2013-03-25 08:59:00,28.6,25.2,29.62,NW,323,7.2,12.0,87,0.00,,,0.00,VWS V14.01,2013-03-25 12:59:00,
2013-03-25 09:04:00,28.6,25.2,29.63,North,360,9.2,9.2,87,0.00,,,0.00,VWS V14.01,2013-03-25 13:04:00,
2013-03-25 09:09:00,28.6,25.2,29.63,NNW,329,2.2,11.0,87,0.00,,,0.00,VWS V14.01,2013-03-25 13:09:00,
2013-03-25 09:14:00,28.7,25.3,29.63,NNW,341,3.2,9.0,87,0.00,,,0.00,VWS V14.01,2013-03-25 13:14:00,
2013-03-25 09:19:00,28.8,25.4,29.64,NNW,344,2.2,10.0,87,0.00,,,0.00,VWS V14.01,2013-03-25 13:19:00,
2013-03-25 09:24:00,28.9,25.5,29.63,North,9,4.2,9.0,87,0.00,,,0.00,VWS V14.01,2013-03-25 13:24:00,
2013-03-25 09:29:00,29.0,25.6,29.64,NW,313,7.2,9.0,87,0.00,,,0.00,VWS V14.01,2013-03-25 13:29:00,
2013-03-25 09:34:00,29.0,25.6,29.64,NNW,337,7.2,9.0,87,0.00,,,0.00,VWS V14.01,2013-03-25 13:34:00,
2013-03-25 09:39:00,29.1,25.7,29.64,NNW,344,5.2,9.0,87,0.00,,,0.00,VWS V14.01,2013-03-25 13:39:00,
2013-03-25 09:44:00,29.2,25.8,29.64,NNW,331,6.2,9.0,87,0.00,,,0.00,VWS V14.01,2013-03-25 13:44:00,
2013-03-25 09:49:00,29.3,25.9,29.64,North,360,5.2,9.0,87,0.00,,,0.00,VWS V14.01,2013-03-25 13:49:00,
2013-03-25 09:54:00,29.4,26.0,29.64,NNW,344,4.2,9.0,87,0.00,,,0.00,VWS V14.01,2013-03-25 13:54:00,
2013-03-25 09:59:00,29.4,26.0,29.65,NNW,338,3.2,9.0,87,0.00,,,0.00,VWS V14.01,2013-03-25 13:59:00,
2013-03-25 10:04:00,29.5,26.1,29.65,North,355,5.2,9.0,87,0.00,,,0.00,VWS V14.01,2013-03-25 14:04:00,
2013-03-25 10:09:00,29.6,26.2,29.65,NNW,337,5.2,9.0,87,0.00,,,0.00,VWS V14.01,2013-03-25 14:09:00,
2013-03-25 10:14:00,29.7,26.3,29.65,NNW,348,7.2,7.2,87,0.00,,,0.00,VWS V14.01,2013-03-25 14:14:00,
2013-03-25 10:19:00,29.8,26.4,29.66,NNW,341,2.2,11.0,87,0.00,,,0.00,VWS V14.01,2013-03-25 14:19:00,
2013-03-25 10:24:00,30.0,26.6,29.66,North,355,8.2,14.0,87,0.00,,,0.00,VWS V14.01,2013-03-25 14:24:00,
2013-03-25 10:29:00,30.0,26.6,29.66,NW,323,11.2,14.0,87,0.00,,,0.00,VWS V14.01,2013-03-25 14:29:00,
2013-03-25 10:34:00,30.1,26.7,29.66,NW,317,4.2,8.0,87,0.00,,,0.00,VWS V14.01,2013-03-25 14:34:00,
2013-03-25 10:39:00,30.2,27.1,29.66,NNW,342,2.2,8.0,88,0.00,,,0.00,VWS V14.01,2013-03-25 14:39:00,
2013-03-25 10:44:00,30.4,27.3,29.66,NNE,16,3.2,12.0,88,0.00,,,0.00,VWS V14.01,2013-03-25 14:44:00,
2013-03-25 10:49:00,30.6,27.2,29.67,North,350,5.2,12.0,87,0.00,,,0.00,VWS V14.01,2013-03-25 14:49:00,
2013-03-25 10:54:00,30.7,27.3,29.67,NNW,346,8.2,8.2,87,0.00,,,0.00,VWS V14.01,2013-03-25 14:54:00,
2013-03-25 10:59:00,30.8,27.4,29.67,North,5,7.2,8.0,87,0.00,,,0.00,VWS V14.01,2013-03-25 14:59:00,
2013-03-25 11:04:00,30.9,27.8,29.67,NNE,15,8.2,9.0,88,0.00,,,0.00,VWS V14.01,2013-03-25 15:04:00,
2013-03-25 11:09:00,31.0,27.9,29.68,North,360,4.2,10.0,88,0.00,,,0.00,VWS V14.01,2013-03-25 15:09:00,
2013-03-25 11:14:00,31.2,28.1,29.68,North,360,4.2,7.0,88,0.00,,,0.00,VWS V14.01,2013-03-25 15:14:00,
2013-03-25 11:19:00,31.2,27.8,29.68,NNW,341,9.2,9.2,87,0.00,,,0.00,VWS V14.01,2013-03-25 15:19:00,
2013-03-25 11:24:00,31.4,28.3,29.68,NNW,340,4.2,10.0,88,0.00,,,0.00,VWS V14.01,2013-03-25 15:24:00,
2013-03-25 11:29:00,31.5,28.4,29.69,NNE,13,8.2,13.0,88,0.00,,,0.00,VWS V14.01,2013-03-25 15:29:00,
2013-03-25 11:35:00,31.6,28.5,29.69,North,9,7.2,9.0,88,0.00,,,0.00,VWS V14.01,2013-03-25 15:35:00,
2013-03-25 11:40:00,31.7,28.6,29.69,NNE,23,10.2,11.0,88,0.00,,,0.00,VWS V14.01,2013-03-25 15:40:00,
2013-03-25 11:45:00,31.8,28.4,29.69,North,355,6.2,12.0,87,0.00,,,0.00,VWS V14.01,2013-03-25 15:45:00,
2013-03-25 11:50:00,32.0,28.9,29.70,NNW,341,12.2,12.2,88,0.00,,,0.00,VWS V14.01,2013-03-25 15:50:00,
2013-03-25 11:55:00,32.0,28.9,29.70,North,360,9.2,12.0,88,0.00,,,0.00,VWS V14.01,2013-03-25 15:55:00,
2013-03-25 12:00:00,32.0,28.9,29.70,North,5,4.2,12.0,88,0.00,,,0.00,VWS V14.01,2013-03-25 16:00:00,
2013-03-25 12:05:00,32.1,29.0,29.70,NNW,341,9.2,11.0,88,0.00,,,0.00,VWS V14.01,2013-03-25 16:05:00,
2013-03-25 12:10:00,32.2,29.0,29.70,NNW,342,7.2,11.0,88,0.00,,,0.00,VWS V14.01,2013-03-25 16:10:00,
2013-03-25 12:15:00,32.3,28.9,29.71,NNW,342,3.2,7.0,87,0.00,,,0.00,VWS V14.01,2013-03-25 16:15:00,
2013-03-25 12:20:00,32.4,29.0,29.71,NNW,338,6.2,13.0,87,0.00,,,0.00,VWS V14.01,2013-03-25 16:20:00,
2013-03-25 12:25:00,32.5,29.1,29.71,NNW,330,8.2,8.2,87,0.00,,,0.00,VWS V14.01,2013-03-25 16:25:00,
2013-03-25 12:30:00,32.6,29.5,29.71,North,355,8.2,13.0,88,0.00,,,0.00,VWS V14.01,2013-03-25 16:30:00,
2013-03-25 12:35:00,32.6,29.5,29.72,NW,321,5.2,11.0,88,0.00,,,0.00,VWS V14.01,2013-03-25 16:35:00,
2013-03-25 12:40:00,32.7,29.5,29.72,NW,317,7.2,11.0,88,0.00,,,0.00,VWS V14.01,2013-03-25 16:40:00,
2013-03-25 12:45:00,32.7,29.5,29.72,NNW,334,8.2,14.0,88,0.00,,,0.00,VWS V14.01,2013-03-25 16:45:00,
2013-03-25 12:50:00,32.9,29.5,29.72,NNW,335,7.2,14.0,87,0.00,,,0.00,VWS V14.01,2013-03-25 16:50:00,
2013-03-25 12:55:00,32.9,29.5,29.72,NNW,331,8.2,12.0,87,0.00,,,0.00,VWS V14.01,2013-03-25 16:55:00,
2013-03-25 13:00:00,33.1,29.9,29.72,NNW,346,5.2,12.0,88,0.02,,,0.02,VWS V14.01,2013-03-25 17:00:00,
2013-03-25 13:05:00,33.0,29.8,29.73,NNW,329,9.2,12.0,88,0.02,,,0.02,VWS V14.01,2013-03-25 17:05:00,
2013-03-25 13:10:00,33.1,29.9,29.73,NW,325,6.2,12.0,88,0.02,,,0.02,VWS V14.01,2013-03-25 17:10:00,
2013-03-25 13:15:00,33.1,29.7,29.73,NNW,341,8.2,11.0,87,0.02,,,0.02,VWS V14.01,2013-03-25 17:15:00,
2013-03-25 13:20:00,33.2,29.8,29.73,NNW,337,3.2,11.0,87,0.02,,,0.02,VWS V14.01,2013-03-25 17:20:00,
2013-03-25 13:25:00,33.3,29.9,29.73,North,360,12.2,13.0,87,0.03,,,0.03,VWS V14.01,2013-03-25 17:25:00,
2013-03-25 13:30:00,33.2,29.8,29.73,North,5,7.2,16.0,87,0.05,,,0.05,VWS V14.01,2013-03-25 17:30:00,
2013-03-25 13:35:00,33.3,29.9,29.73,NW,318,13.2,13.2,87,0.05,,,0.05,VWS V14.01,2013-03-25 17:35:00,
2013-03-25 13:40:00,33.5,30.0,29.74,North,11,8.2,12.0,87,0.07,,,0.07,VWS V14.01,2013-03-25 17:40:00,
2013-03-25 13:45:00,33.6,30.1,29.74,NNW,342,4.2,8.0,87,0.09,,,0.09,VWS V14.01,2013-03-25 17:45:00,
2013-03-25 13:50:00,33.8,30.4,29.74,NNE,29,7.2,10.0,87,0.09,,,0.09,VWS V14.01,2013-03-25 17:50:00,
2013-03-25 13:55:00,33.6,30.1,29.74,NNE,22,11.2,12.0,87,0.12,,,0.12,VWS V14.01,2013-03-25 17:55:00,
2013-03-25 14:00:00,33.6,30.1,29.74,NNW,348,4.2,12.0,87,0.13,,OVC027,0.13,VWS V14.01,2013-03-25 18:00:00,
2013-03-25 14:05:00,33.6,30.1,29.74,North,360,7.2,11.0,87,0.12,,OVC027,0.14,VWS V14.01,2013-03-25 18:05:00,
2013-03-25 14:10:00,33.4,30.0,29.74,North,350,6.2,12.0,87,0.13,,OVC027,0.15,VWS V14.01,2013-03-25 18:10:00,
2013-03-25 14:15:00,33.4,30.0,29.75,NNE,21,6.2,11.0,87,0.15,,OVC027,0.17,VWS V14.01,2013-03-25 18:15:00,
2013-03-25 14:20:00,33.4,30.0,29.75,NNE,17,5.2,12.0,87,0.16,,OVC027,0.18,VWS V14.01,2013-03-25 18:20:00,
2013-03-25 14:25:00,33.3,29.9,29.75,NNE,22,8.2,17.0,87,0.17,,OVC027,0.19,VWS V14.01,2013-03-25 18:25:00,
2013-03-25 14:30:00,33.3,29.9,29.75,North,5,12.2,17.0,87,0.18,,OVC027,0.20,VWS V14.01,2013-03-25 18:30:00,
2013-03-25 14:35:00,33.3,29.9,29.76,North,360,7.2,13.0,87,0.16,,OVC027,0.21,VWS V14.01,2013-03-25 18:35:00,
2013-03-25 14:40:00,33.4,30.0,29.76,WNW,296,11.2,16.0,87,0.17,,OVC027,0.22,VWS V14.01,2013-03-25 18:40:00,
2013-03-25 14:45:00,33.4,30.0,29.76,North,11,11.2,12.0,87,0.16,,OVC027,0.23,VWS V14.01,2013-03-25 18:45:00,
2013-03-25 14:50:00,33.3,29.9,29.76,North,360,7.2,12.0,87,0.17,,OVC027,0.24,VWS V14.01,2013-03-25 18:50:00,
2013-03-25 14:55:00,33.4,30.0,29.76,North,9,7.2,10.0,87,0.15,,OVC027,0.25,VWS V14.01,2013-03-25 18:55:00,
2013-03-25 15:00:00,33.3,29.9,29.76,NNE,15,8.2,13.0,87,0.16,,OVC038,0.26,VWS V14.01,2013-03-25 19:00:00,
2013-03-25 15:05:00,33.3,29.9,29.76,North,360,11.2,19.0,87,0.14,,OVC038,0.27,VWS V14.01,2013-03-25 19:05:00,
2013-03-25 15:10:00,33.4,30.0,29.77,North,355,8.2,19.0,87,0.15,,OVC038,0.28,VWS V14.01,2013-03-25 19:10:00,
2013-03-25 15:15:00,33.5,30.0,29.77,North,355,4.2,12.0,87,0.14,,OVC038,0.29,VWS V14.01,2013-03-25 19:15:00,
2013-03-25 15:20:00,33.5,30.0,29.77,North,355,9.2,12.0,87,0.14,,OVC038,0.29,VWS V14.01,2013-03-25 19:20:00,
2013-03-25 15:25:00,33.5,30.0,29.77,North,355,4.2,10.0,87,0.12,,OVC038,0.30,VWS V14.01,2013-03-25 19:25:00,
2013-03-25 15:30:00,33.5,30.0,29.77,North,9,5.2,11.0,87,0.13,,OVC038,0.31,VWS V14.01,2013-03-25 19:30:00,
2013-03-25 15:35:00,33.6,30.4,29.78,NNW,336,7.2,11.0,88,0.12,,OVC038,0.32,VWS V14.01,2013-03-25 19:35:00,
2013-03-25 15:40:00,33.5,30.3,29.78,NW,315,10.2,14.0,88,0.12,,OVC038,0.32,VWS V14.01,2013-03-25 19:40:00,
2013-03-25 15:45:00,33.6,30.4,29.78,NW,325,6.2,11.0,88,0.10,,OVC038,0.33,VWS V14.01,2013-03-25 19:45:00,
2013-03-25 15:50:00,33.5,30.3,29.78,North,350,11.2,11.2,88,0.10,,OVC038,0.33,VWS V14.01,2013-03-25 19:50:00,
2013-03-25 15:55:00,33.4,30.2,29.78,NE,36,9.2,14.0,88,0.09,,OVC038,0.34,VWS V14.01,2013-03-25 19:55:00,
2013-03-25 16:00:00,33.2,30.0,29.79,North,355,7.2,14.0,88,0.09,,OVC036,0.34,VWS V14.01,2013-03-25 20:00:00,
2013-03-25 16:05:00,33.3,30.1,29.79,NW,311,3.2,11.0,88,0.09,,OVC036,0.35,VWS V14.01,2013-03-25 20:05:00,
2013-03-25 16:10:00,33.6,30.4,29.79,North,350,7.2,11.0,88,0.09,,OVC036,0.35,VWS V14.01,2013-03-25 20:10:00,
2013-03-25 16:15:00,33.7,30.5,29.79,North,5,4.2,10.0,88,0.07,,OVC036,0.35,VWS V14.01,2013-03-25 20:15:00,
2013-03-25 16:20:00,33.6,30.4,29.79,NW,322,8.2,13.0,88,0.08,,OVC036,0.36,VWS V14.01,2013-03-25 20:20:00,
2013-03-25 16:25:00,33.5,30.3,29.80,North,355,3.2,13.0,88,0.06,,OVC036,0.36,VWS V14.01,2013-03-25 20:25:00,
2013-03-25 16:30:00,33.4,30.2,29.80,NW,323,9.2,13.0,88,0.07,,OVC036,0.37,VWS V14.01,2013-03-25 20:30:00,
2013-03-25 16:36:00,33.4,30.2,29.80,North,5,2.2,14.0,88,0.06,,OVC036,0.37,VWS V14.01,2013-03-25 20:36:00,
2013-03-25 16:41:00,33.7,30.5,29.80,North,360,8.2,14.0,88,0.06,,OVC036,0.37,VWS V14.01,2013-03-25 20:41:00,
2013-03-25 16:46:00,33.7,30.5,29.81,NNE,13,13.2,16.0,88,0.04,,OVC036,0.37,VWS V14.01,2013-03-25 20:46:00,
2013-03-25 16:51:00,33.6,30.4,29.81,NNW,336,7.2,16.0,88,0.05,,OVC036,0.38,VWS V14.01,2013-03-25 20:51:00,
2013-03-25 16:56:00,33.4,30.2,29.81,NNW,346,7.2,13.0,88,0.05,,OVC036,0.38,VWS V14.01,2013-03-25 20:56:00,
2013-03-25 17:01:00,33.4,30.2,29.82,NNW,346,6.2,13.0,88,0.05,,OVC041,0.38,VWS V14.01,2013-03-25 21:01:00,
2013-03-25 17:06:00,33.4,30.2,29.82,NNE,16,4.2,11.0,88,0.03,,OVC041,0.38,VWS V14.01,2013-03-25 21:06:00,
2013-03-25 17:11:00,33.4,30.2,29.82,NNW,347,6.2,11.0,88,0.03,,OVC041,0.38,VWS V14.01,2013-03-25 21:11:00,
2013-03-25 17:16:00,33.2,30.0,29.83,NNW,340,3.2,12.0,88,0.04,,OVC041,0.39,VWS V14.01,2013-03-25 21:16:00,
2013-03-25 17:21:00,33.2,30.0,29.83,North,5,7.2,12.0,88,0.04,,OVC041,0.39,VWS V14.01,2013-03-25 21:21:00,
2013-03-25 17:26:00,33.2,30.0,29.83,North,5,5.2,8.0,88,0.03,,OVC041,0.39,VWS V14.01,2013-03-25 21:26:00,
2013-03-25 17:31:00,33.2,30.0,29.83,North,360,7.2,15.0,88,0.03,,OVC041,0.39,VWS V14.01,2013-03-25 21:31:00,
2013-03-25 17:37:00,33.3,30.1,29.83,NNE,13,6.2,11.0,88,0.02,,OVC041,0.39,VWS V14.01,2013-03-25 21:37:00,
2013-03-25 17:42:00,33.3,30.1,29.84,NNW,348,5.2,9.0,88,0.02,,OVC041,0.39,VWS V14.01,2013-03-25 21:42:00,
2013-03-25 17:47:00,33.4,30.2,29.84,NNW,339,8.2,10.0,88,0.02,,OVC041,0.39,VWS V14.01,2013-03-25 21:47:00,
2013-03-25 17:52:00,33.4,30.2,29.84,NNW,327,8.2,9.0,88,0.01,,OVC041,0.39,VWS V14.01,2013-03-25 21:52:00,
2013-03-25 17:57:00,33.2,30.0,29.84,NNW,341,6.2,9.0,88,0.01,,OVC041,0.39,VWS V14.01,2013-03-25 21:57:00,
2013-03-25 18:02:00,33.3,30.1,29.85,North,355,2.2,4.0,88,0.01,,OVC028,0.39,VWS V14.01,2013-03-25 22:02:00,
2013-03-25 18:07:00,33.3,30.1,29.85,NNW,343,2.2,9.0,88,0.01,,OVC028,0.39,VWS V14.01,2013-03-25 22:07:00,
2013-03-25 18:12:00,33.3,30.1,29.85,NNW,341,4.2,4.2,88,0.01,,OVC028,0.39,VWS V14.01,2013-03-25 22:12:00,
2013-03-25 18:17:00,33.4,30.2,29.85,NNW,331,5.2,9.0,88,0.01,,OVC028,0.39,VWS V14.01,2013-03-25 22:17:00,
2013-03-25 18:22:00,33.4,30.2,29.86,North,5,6.2,10.0,88,0.01,,OVC028,0.40,VWS V14.01,2013-03-25 22:22:00,
2013-03-25 18:27:00,33.5,30.3,29.86,NNW,340,2.2,10.0,88,0.01,,OVC028,0.40,VWS V14.01,2013-03-25 22:27:00,
2013-03-25 18:32:00,33.4,30.2,29.86,NNW,327,5.2,10.0,88,0.01,,OVC028,0.40,VWS V14.01,2013-03-25 22:32:00,
2013-03-25 18:37:00,33.3,30.1,29.86,North,350,8.2,11.0,88,0.01,,OVC028,0.40,VWS V14.01,2013-03-25 22:37:00,
2013-03-25 18:42:00,33.2,30.0,29.87,WNW,290,2.2,9.0,88,0.01,,OVC028,0.40,VWS V14.01,2013-03-25 22:42:00,
2013-03-25 18:47:00,33.3,30.1,29.87,NW,315,8.2,9.0,88,0.01,,OVC028,0.40,VWS V14.01,2013-03-25 22:47:00,
2013-03-25 18:52:00,33.2,30.0,29.87,NNW,332,3.2,9.0,88,0.01,,OVC028,0.40,VWS V14.01,2013-03-25 22:52:00,
2013-03-25 18:57:00,33.1,29.9,29.88,NW,311,5.2,10.0,88,0.01,,OVC028,0.40,VWS V14.01,2013-03-25 22:57:00,
2013-03-25 19:02:00,33.0,29.8,29.88,NW,318,12.2,12.2,88,0.01,,OVC046,0.40,VWS V14.01,2013-03-25 23:02:00,
2013-03-25 19:07:00,32.9,29.7,29.89,NNW,329,4.2,11.0,88,0.01,,OVC046,0.40,VWS V14.01,2013-03-25 23:07:00,
2013-03-25 19:12:00,32.9,29.7,29.89,NW,325,3.2,6.0,88,0.01,,OVC046,0.40,VWS V14.01,2013-03-25 23:12:00,
2013-03-25 19:17:00,32.9,29.7,29.89,NNW,331,5.2,7.0,88,0.01,,OVC046,0.40,VWS V14.01,2013-03-25 23:17:00,
2013-03-25 19:22:00,32.8,29.6,29.90,NNW,341,3.2,7.0,88,0.00,,OVC046,0.40,VWS V14.01,2013-03-25 23:22:00,
2013-03-25 19:27:00,32.8,29.6,29.90,NNW,327,5.2,9.0,88,0.00,,OVC046,0.40,VWS V14.01,2013-03-25 23:27:00,
2013-03-25 19:32:00,32.7,29.5,29.90,WNW,299,4.2,7.0,88,0.00,,OVC046,0.40,VWS V14.01,2013-03-25 23:32:00,
2013-03-25 19:38:00,32.7,29.5,29.91,NNW,337,5.2,9.0,88,0.00,,OVC046,0.40,VWS V14.01,2013-03-25 23:38:00,
2013-03-25 19:43:00,32.6,29.5,29.91,NNW,327,10.2,11.0,88,0.00,,OVC046,0.40,VWS V14.01,2013-03-25 23:43:00,
2013-03-25 19:48:00,32.6,29.5,29.91,West,276,6.2,11.0,88,0.00,,OVC046,0.40,VWS V14.01,2013-03-25 23:48:00,
2013-03-25 19:53:00,32.6,29.5,29.91,NNW,340,6.2,7.0,88,0.00,,OVC046,0.40,VWS V14.01,2013-03-25 23:53:00,
2013-03-25 19:58:00,32.6,29.5,29.92,WNW,303,12.2,12.2,88,0.00,,OVC046,0.40,VWS V14.01,2013-03-25 23:58:00,
2013-03-25 20:03:00,32.5,29.4,29.92,NNW,338,9.2,10.0,88,0.00,,OVC045,0.40,VWS V14.01,2013-03-26 00:03:00,
2013-03-25 20:08:00,32.5,29.4,29.92,NNW,331,4.2,15.0,88,0.00,,OVC045,0.40,VWS V14.01,2013-03-26 00:08:00,
2013-03-25 20:13:00,32.5,29.4,29.92,NNW,330,4.2,7.0,88,0.00,,OVC045,0.40,VWS V14.01,2013-03-26 00:13:00,
2013-03-25 20:18:00,32.5,29.4,29.92,NNW,338,3.2,8.0,88,0.00,,OVC045,0.40,VWS V14.01,2013-03-26 00:18:00,
2013-03-25 20:23:00,32.5,29.4,29.92,NNW,346,6.2,6.2,88,0.00,,OVC045,0.40,VWS V14.01,2013-03-26 00:23:00,
2013-03-25 20:28:00,32.4,29.2,29.92,NNW,336,3.2,10.0,88,0.00,,OVC045,0.40,VWS V14.01,2013-03-26 00:28:00,
2013-03-25 20:33:00,32.5,29.4,29.93,NNW,340,5.2,5.2,88,0.00,,OVC045,0.40,VWS V14.01,2013-03-26 00:33:00,
2013-03-25 20:38:00,32.5,29.4,29.93,NNW,340,5.2,7.0,88,0.00,,OVC045,0.40,VWS V14.01,2013-03-26 00:38:00,
2013-03-25 20:43:00,32.4,29.2,29.93,NW,319,6.2,6.2,88,0.00,,OVC045,0.40,VWS V14.01,2013-03-26 00:43:00,
2013-03-25 20:48:00,32.4,29.2,29.94,NNW,342,6.2,11.0,88,0.00,,OVC045,0.40,VWS V14.01,2013-03-26 00:48:00,
2013-03-25 20:53:00,32.4,29.2,29.94,NNW,348,6.2,11.0,88,0.00,,OVC045,0.40,VWS V14.01,2013-03-26 00:53:00,
2013-03-25 20:58:00,32.4,29.2,29.94,NNW,340,3.2,11.0,88,0.00,,OVC045,0.40,VWS V14.01,2013-03-26 00:58:00,
2013-03-25 21:03:00,32.4,29.2,29.94,NNW,336,3.2,7.0,88,0.00,,OVC050,0.40,VWS V14.01,2013-03-26 01:03:00,
2013-03-25 21:08:00,32.4,29.2,29.94,NW,321,4.2,9.0,88,0.00,,OVC050,0.40,VWS V14.01,2013-03-26 01:08:00,
2013-03-25 21:13:00,32.4,29.2,29.94,NW,325,4.2,6.0,88,0.00,,OVC050,0.40,VWS V14.01,2013-03-26 01:13:00,
2013-03-25 21:18:00,32.4,29.2,29.95,NW,310,4.2,7.0,88,0.00,,OVC050,0.40,VWS V14.01,2013-03-26 01:18:00,
2013-03-25 21:23:00,32.3,29.1,29.95,NW,311,2.2,3.0,88,0.00,,OVC050,0.40,VWS V14.01,2013-03-26 01:23:00,
2013-03-25 21:28:00,32.3,29.1,29.95,NW,325,3.2,7.0,88,0.00,,OVC050,0.40,VWS V14.01,2013-03-26 01:28:00,
2013-03-25 21:33:00,32.3,29.1,29.96,NNW,336,5.2,8.0,88,0.00,,OVC050,0.40,VWS V14.01,2013-03-26 01:33:00,
2013-03-25 21:38:00,32.3,29.1,29.96,NNW,339,4.2,8.0,88,0.00,,OVC050,0.40,VWS V14.01,2013-03-26 01:38:00,
2013-03-25 21:43:00,32.2,29.3,29.96,NW,317,6.2,7.0,89,0.00,,OVC050,0.40,VWS V14.01,2013-03-26 01:43:00,
2013-03-25 21:48:00,32.2,29.3,29.96,NNW,335,8.2,9.0,89,0.00,,OVC050,0.40,VWS V14.01,2013-03-26 01:48:00,
2013-03-25 21:53:00,32.2,29.3,29.97,NNW,338,3.2,5.0,89,0.00,,OVC050,0.40,VWS V14.01,2013-03-26 01:53:00,
2013-03-25 21:58:00,32.2,29.3,29.97,NNW,336,4.2,7.0,89,0.00,,OVC050,0.40,VWS V14.01,2013-03-26 01:58:00,
2013-03-25 22:03:00,32.2,29.3,29.97,NW,325,6.2,8.0,89,0.00,,OVC055,0.40,VWS V14.01,2013-03-26 02:03:00,
2013-03-25 22:08:00,32.2,29.3,29.97,WNW,302,3.2,14.0,89,0.00,,OVC055,0.40,VWS V14.01,2013-03-26 02:08:00,
2013-03-25 22:13:00,32.3,29.4,29.97,NW,313,10.2,10.2,89,0.00,,OVC055,0.40,VWS V14.01,2013-03-26 02:13:00,
2013-03-25 22:18:00,32.3,29.4,29.98,NW,315,3.2,9.0,89,0.00,,OVC055,0.40,VWS V14.01,2013-03-26 02:18:00,
2013-03-25 22:23:00,32.3,29.4,29.98,NNW,333,3.2,7.0,89,0.00,,OVC055,0.40,VWS V14.01,2013-03-26 02:23:00,
2013-03-25 22:28:00,32.3,29.4,29.98,NNW,329,6.2,9.0,89,0.00,,OVC055,0.40,VWS V14.01,2013-03-26 02:28:00,
2013-03-25 22:33:00,32.3,29.4,29.98,NW,324,6.2,8.0,89,0.00,,OVC055,0.40,VWS V14.01,2013-03-26 02:33:00,
2013-03-25 22:38:00,32.3,29.4,29.98,North,360,4.2,13.0,89,0.00,,OVC055,0.40,VWS V14.01,2013-03-26 02:38:00,
2013-03-25 22:43:00,32.3,29.4,29.99,NNW,344,3.2,8.0,89,0.00,,OVC055,0.40,VWS V14.01,2013-03-26 02:43:00,
2013-03-25 22:48:00,32.2,29.3,29.99,WNW,302,5.2,10.0,89,0.00,,OVC055,0.40,VWS V14.01,2013-03-26 02:48:00,
2013-03-25 22:53:00,32.2,29.3,29.99,NNW,348,6.2,10.0,89,0.00,,OVC055,0.40,VWS V14.01,2013-03-26 02:53:00,
2013-03-25 22:58:00,32.2,29.3,29.99,NNW,334,4.2,10.0,89,0.00,,OVC055,0.40,VWS V14.01,2013-03-26 02:58:00,
2013-03-25 23:03:00,32.2,29.3,29.99,NNW,330,7.2,7.2,89,0.00,,OVC060,0.40,VWS V14.01,2013-03-26 03:03:00,
2013-03-25 23:08:00,32.2,29.3,29.99,North,355,6.2,9.0,89,0.00,,OVC060,0.40,VWS V14.01,2013-03-26 03:08:00,
2013-03-25 23:13:00,32.1,29.2,29.99,NNW,333,5.2,7.0,89,0.00,,OVC060,0.40,VWS V14.01,2013-03-26 03:13:00,
2013-03-25 23:18:00,32.1,29.2,29.99,NNW,330,2.2,7.0,89,0.00,,OVC060,0.40,VWS V14.01,2013-03-26 03:18:00,
2013-03-25 23:23:00,32.1,29.2,30.00,NW,306,4.2,11.0,89,0.00,,OVC060,0.40,VWS V14.01,2013-03-26 03:23:00,
2013-03-25 23:29:00,32.1,29.2,30.00,NW,320,4.2,11.0,89,0.00,,OVC060,0.40,VWS V14.01,2013-03-26 03:29:00,
2013-03-25 23:34:00,32.1,29.2,29.99,NW,323,3.2,4.0,89,0.00,,OVC060,0.40,VWS V14.01,2013-03-26 03:34:00,
2013-03-25 23:39:00,32.1,29.2,30.00,NW,325,4.2,6.0,89,0.00,,OVC060,0.40,VWS V14.01,2013-03-26 03:39:00,
2013-03-25 23:44:00,32.1,29.2,30.00,NW,322,6.2,6.2,89,0.00,,OVC060,0.40,VWS V14.01,2013-03-26 03:44:00,
2013-03-25 23:49:00,32.1,29.2,30.00,NW,322,5.2,7.0,89,0.00,,OVC060,0.40,VWS V14.01,2013-03-26 03:49:00,
2013-03-25 23:54:00,32.1,29.2,30.00,NW,320,2.2,7.0,89,0.00,,OVC060,0.40,VWS V14.01,2013-03-26 03:54:00,
2013-03-25 23:59:00,32.1,29.2,30.00,NNW,338,7.2,9.0,89,0.00,,OVC060,0.40,VWS V14.01,2013-03-26 03:59:00,